This is the latest recevied weather packets stored in our database for station/object KD7AWQ. If no packets are shown the sender has not sent any weather packets the latest 10 day(s).
| Time | Temp. | Humidity | Pressure | Rain* | Wind** | Luminosity | Snow |
|---|---|---|---|---|---|---|---|
| 1788423828 | 25.56° C | 49% | 1187.5 hPa | 0 mm | - | 0 W/m² | - |
| 1788423524 | 25.56° C | 50% | 1187.1 hPa | 0 mm | - | 0 W/m² | - |
| 1788423219 | 25.56° C | 50% | 1187.2 hPa | 0 mm | - | 0 W/m² | - |
| 1788422915 | 25.56° C | 50% | 1187.3 hPa | 0 mm | - | 0 W/m² | - |
| 1788422612 | 25.56° C | 50% | 1187.3 hPa | 0 mm | - | 0 W/m² | - |
| 1788422312 | 25.56° C | 49% | 1187.5 hPa | 0 mm | - | 0 W/m² | - |
| 1788422007 | 25.56° C | 50% | 1187.7 hPa | 0 mm | - | 0 W/m² | - |
| 1788421707 | 25.56° C | 50% | 1187.9 hPa | 0 mm | - | 0 W/m² | - |
| 1788421401 | 25.56° C | 49% | 1187.7 hPa | 0 mm | - | 0 W/m² | - |
| 1788421097 | 26.11° C | 48% | 1187.5 hPa | 0 mm | - | 0 W/m² | - |
| 1788420792 | 25.56° C | 48% | 1187.7 hPa | 0 mm | - | 0 W/m² | - |
| 1788420488 | 25° C | 50% | 1187.9 hPa | 0 mm | - | 0 W/m² | - |
| 1788420184 | 25° C | 50% | 1187.7 hPa | 0 mm | - | 0 W/m² | - |
| 1788419880 | 25.56° C | 49% | 1187.5 hPa | 0 mm | - | 0 W/m² | - |
| 1788419576 | 26.11° C | 46% | 1187.7 hPa | 0 mm | - | 0 W/m² | - |
| 1788419270 | 26.67° C | 44% | 1187.8 hPa | 0 mm | - | 0 W/m² | - |
| 1788418966 | 26.67° C | 44% | 1187.8 hPa | 0 mm | - | 0 W/m² | - |
| 1788418661 | 26.67° C | 44% | 1187.8 hPa | 0 mm | - | 0 W/m² | - |
| 1788418360 | 26.67° C | 44% | 1187.8 hPa | 0 mm | - | 0 W/m² | - |
| 1788418059 | 26.67° C | 44% | 1187.3 hPa | 0 mm | - | 0 W/m² | - |
| 1788417754 | 26.67° C | 45% | 1187.4 hPa | 0 mm | - | 0 W/m² | - |
| 1788417451 | 26.11° C | 45% | 1187.7 hPa | 0 mm | - | 0 W/m² | - |
| 1788417145 | 26.11° C | 45% | 1187.7 hPa | 0 mm | - | 0 W/m² | - |
| 1788416842 | 26.67° C | 45% | 1187.7 hPa | 0 mm | - | 0 W/m² | - |
| 1788416541 | 26.11° C | 46% | 1187.7 hPa | 0 mm | - | 0 W/m² | - |
* Rain latest hour (hover to see other rain measurements)
** Current wind speed in m/s (hover to see current wind gust speed)